STARLINK-32247 (60446 NORAD) Tracking and Keplerian Element Data

This shows tracking and keplerian element data for the satellite.

Feedback or suggestion? Click here.




ElementValue
Catalog60446
NameSTARLINK-32247
Epoch Orbit607
Epoch Day286.91668981
Epoch Year2024
RAAN71.2682
Inclination53.1592
Eccentricity0.0001084
Argument of Perigee49.7962
Mean Anonmoly76.5121
Mean Motion15.59039851
Decay Rate-0.00467021
L11 60446U 24144X 24286.91668981 -.00467021 00000+0 -62277-2 0 9992
L22 60446 53.1592 71.2682 0001084 49.7962 76.5121 15.59039851 6074



Live tracking and technical data element details for STARLINK-32247 (NORAD 60446). STARLINK-32247 can be tracked NOW for your location showing map with azimuth and elevation plus other details from your city location.







IsCatalogInMostPopularTable: catalog: 60446, numindb: 7
Update: records affected: 1



GetName: 60446 STARLINK-32247

Hit Count: updated at: Fri, 06 Dec 2024 11:34:05 GMT